Location: Dumpton Point
(51.3500°N, 1.4433°E)
Time: 04:58:18
(UTC+00:00)

Transit 4A - Visible Passes

Search period start: 14 April 2021 00:00
Search period end: 24 April 2021 00:00
Orbit: 869 x 976 km, 66.8° (Epoch: 13 April)

Date Brightness Start Highest point End Pass type
(mag) Time Alt. Az. Time Alt. Az. Time Alt. Az.
14 Apr 9.1 00:07:13 30° E 00:07:13 30° E 00:11:37 10° NE visible
14 Apr 8.0 01:50:42 48° WSW 01:52:22 67° NW 01:58:26 10° NE visible
14 Apr 9.5 03:34:47 10° W 03:39:49 25° NNW 03:44:45 10° NNE visible
15 Apr 8.6 00:16:03 41° E 00:16:03 41° E 00:21:11 10° NE visible
15 Apr 8.4 01:59:33 35° W 02:01:48 52° NW 02:07:44 10° NNE visible
15 Apr 9.7 03:44:50 10° WNW 03:49:32 22° NNW 03:54:10 10° NNE visible
15 Apr 10.1 22:41:22 10° E 22:41:22 10° E 22:41:36 10° E visible
16 Apr 8.1 00:24:51 58° ESE 00:24:51 58° ESE 00:30:38 10° NE visible
16 Apr 8.8 02:08:20 26° W 02:11:18 41° NW 02:17:01 10° NNE visible
16 Apr 9.8 03:54:53 10° WNW 03:59:18 20° NNW 04:03:40 10° NE visible
16 Apr 9.8 22:50:08 16° E 22:50:08 16° E 22:52:19 10° ENE visible
17 Apr 7.7 00:33:37 76° SSE 00:33:55 79° ESE 00:40:02 10° NE visible
17 Apr 9.1 02:17:06 18° W 02:20:52 33° NNW 02:26:19 10° NNE visible
17 Apr 10.0 04:04:53 10° NW 04:09:06 19° N 04:13:15 10° NE visible
17 Apr 9.3 22:58:51 23° E 22:58:51 23° E 23:02:16 10° ENE visible
18 Apr 7.8 00:42:20 65° WSW 00:43:15 80° NW 00:49:21 10° NE visible
18 Apr 9.4 02:25:49 12° W 02:30:31 28° NNW 02:35:38 10° NNE visible
18 Apr 10.1 04:14:48 10° NW 04:18:55 18° N 04:22:58 10° NE visible
18 Apr 8.9 23:07:32 32° E 23:07:32 32° E 23:11:57 10° NE visible
19 Apr 8.2 00:51:00 46° W 00:52:38 61° NW 00:58:39 10° NE visible
19 Apr 9.7 02:35:18 10° WNW 02:40:12 24° NNW 02:45:00 10° NNE visible
19 Apr 8.3 23:16:09 46° ESE 23:16:09 46° ESE 23:21:28 10° NE visible
20 Apr 8.6 00:59:38 32° W 01:02:06 47° NW 01:07:57 10° NNE visible
20 Apr 9.9 02:45:21 10° WNW 02:49:56 21° NNW 02:54:26 10° NNE visible
20 Apr 9.8 21:41:14 12° E 21:41:14 12° E 21:42:30 10° ENE visible
20 Apr 7.8 23:24:43 65° SE 23:24:52 65° ESE 23:30:54 10° NE visible
21 Apr 9.0 01:08:11 21° W 01:11:37 38° NW 01:17:14 10° NNE visible
21 Apr 10.0 02:55:24 10° NW 02:59:43 19° N 03:03:57 10° NE visible
21 Apr 9.4 21:49:44 19° E 21:49:44 19° E 21:52:49 10° ENE visible
21 Apr 7.8 23:33:11 66° SSW 23:34:09 86° SE 23:40:15 10° NE visible
22 Apr 9.4 01:16:39 14° W 01:21:13 31° NNW 01:26:32 10° NNE visible
22 Apr 10.2 03:05:22 10° NW 03:09:31 18° N 03:13:35 10° NE visible
22 Apr 8.9 21:58:07 28° ESE 21:58:07 28° ESE 22:02:39 10° NE visible
22 Apr 8.0 23:41:34 45° WSW 23:43:30 72° NW 23:49:35 10° NE visible
23 Apr 9.6 01:25:46 10° W 01:30:52 26° NNW 01:35:52 10° NNE visible
23 Apr 10.2 03:15:15 10° NW 03:19:19 18° N 03:23:21 10° NE visible
23 Apr 8.4 22:06:23 38° ESE 22:06:41 39° ESE 22:12:15 10° NE visible
23 Apr 8.4 23:49:49 29° WSW 23:52:55 56° NW 23:58:52 10° NE visible
